星链-1404 (STARLINK-1404 )

导读 | 豆包AI

STARLINK-1404是美国太空探索技术公司Starlink星座中的一颗卫星,于2020年6月4日发射升空。Starlink星座旨在为全球提供高速低时延卫星互联网服务,该卫星加入星座后,进一步拓展了星座的全球覆盖范围,助力全球网络基础设施完善,服务偏远地区网络接入需求。

基本信息
目录编号:
45686
目录名称:
STARLINK-1404
国际标识:
2020-035AF
轨道中心:
EARTH
卫星名称:
星链-1404
卫星全名:
星链-1404 (STARLINK-1404 )
卫星状态:
在轨 (已飞行2130 天)
发射日期:
2020-06-04 UTC
国别 :
美国 (US)
星等 :
--
轨道信息
数据来源 国际轨道数据
星历时间: 2026-04-04T04:43:36+0800
5小时前
查看轨道信息
半长轴: 6832.035km
偏心率: 0.0001153
轨道倾角: 53.160°
近地点辐角 117.641°
升交点赤经 292.297°
平近点角 242.471°
近地点: 453.11km
远地点: 454.686km
周期: 93.667分钟
每日圈数: 15.373676
详细信息
固有亮度:
5
最大亮度:
2.5
卫星平台:
Starlink V1.0
覆盖范围:
全球
运营商:
太空探索技术公司
运营商所在国:
美国
制造商(研发单位):
太空探索技术公司
制造商所在国:
美国
使用方式:
暂无
卫星简介
星链(Starlink)计划是由太空探索技术公司(SpaceX)提出的一个巨型低轨卫星互联网星座项目,计划在2019年至2024年间在太空搭建由约1.2万颗卫星组成的“星链”网络,其中1584颗将部署在地球上空550千米处的近地轨道,并从2020年开始工作。该卫星仍在工作。
2D轨道图
3D轨道图
轨道高度分析图
轨道倾角分析图
轨道综合分析图
查看轨道综合分析图